RNA202 VABB-VNKT

Flight info

Callsign RNA202
Flight time 2h 5m
Altitude 41000
Route ANOLI2A KAKPO Z4 BPL G590 OMUPA DCT SIMRA SMRA1D
Aircraft A332/H-SDE3GHIJ2J3J5M1RVWXY/LB2D1

Departure

Time 2026-04-30 09:53
Airport Chhatrapati Shivaji Maharaj International Airport (VABB)

Arrival

Time 2026-04-30 11:58
Airport Tribhuvan International Airport (VNKT)
Time Latitude Longitude Altitude Speed Heading
2026-04-30 09:14 19.09562 72.87180 53 ft 0 kts 145°
2026-04-30 09:44 19.09564 72.87178 49 ft 2 kts 145°
2026-04-30 09:44 19.09585 72.87163 53 ft 4 kts 145°
2026-04-30 09:44 19.09608 72.87146 53 ft 4 kts 144°
2026-04-30 09:45 19.09627 72.87133 53 ft 4 kts 168°
2026-04-30 09:45 19.09649 72.87138 53 ft 4 kts 222°
2026-04-30 09:45 19.09660 72.87149 53 ft 1 kts 225°
2026-04-30 09:47 19.09658 72.87147 53 ft 2 kts 225°
2026-04-30 09:47 19.09644 72.87132 49 ft 4 kts 225°
2026-04-30 09:48 19.09629 72.87115 49 ft 6 kts 225°
2026-04-30 09:48 19.09596 72.87081 53 ft 8 kts 225°
2026-04-30 09:48 19.09553 72.87034 53 ft 10 kts 225°
2026-04-30 09:48 19.09482 72.86956 53 ft 12 kts 230°
2026-04-30 09:49 19.09424 72.86889 49 ft 13 kts 216°
2026-04-30 09:49 19.09344 72.86901 46 ft 12 kts 139°
2026-04-30 09:49 19.09302 72.86945 46 ft 13 kts 135°
2026-04-30 09:49 19.09242 72.87024 48 ft 14 kts 110°
2026-04-30 09:50 19.09235 72.87134 53 ft 16 kts 88°
2026-04-30 09:50 19.09210 72.87246 53 ft 16 kts 140°
2026-04-30 09:50 19.09099 72.87265 49 ft 17 kts 177°
2026-04-30 09:50 19.09052 72.87352 53 ft 15 kts 91°
2026-04-30 09:51 19.09053 72.87472 48 ft 17 kts 89°
2026-04-30 09:51 19.09055 72.87607 49 ft 19 kts 89°
2026-04-30 09:51 19.09053 72.87755 47 ft 20 kts 104°
2026-04-30 09:51 19.08941 72.87807 47 ft 19 kts 201°
2026-04-30 09:52 19.08883 72.87682 51 ft 29 kts 270°
2026-04-30 09:52 19.08877 72.87232 55 ft 95 kts 268°
2026-04-30 09:52 19.08864 72.86319 52 ft 153 kts 268°
2026-04-30 09:52 19.08846 72.85053 389 ft 182 kts 268°
2026-04-30 09:53 19.08827 72.83692 1248 ft 189 kts 267°
2026-04-30 09:53 19.08811 72.82268 2056 ft 201 kts 268°
2026-04-30 09:53 19.08803 72.80715 2473 ft 224 kts 269°
2026-04-30 09:53 19.08778 72.78976 2778 ft 248 kts 268°
2026-04-30 09:54 19.08743 72.77111 3395 ft 257 kts 269°
2026-04-30 09:54 19.08723 72.75211 4154 ft 261 kts 272°
2026-04-30 09:54 19.09089 72.73329 4921 ft 265 kts 293°
2026-04-30 09:54 19.10184 72.71765 5697 ft 270 kts 319°
2026-04-30 09:55 19.11876 72.70893 6496 ft 277 kts 346°
2026-04-30 09:55 19.13808 72.70961 7290 ft 286 kts 13°
2026-04-30 09:55 19.15663 72.71781 8074 ft 292 kts 24°
2026-04-30 09:55 19.17481 72.72784 8830 ft 297 kts 25°
2026-04-30 09:56 19.19320 72.73799 9470 ft 300 kts 22°
2026-04-30 09:56 19.21314 72.74365 9778 ft 297 kts
2026-04-30 09:56 19.23376 72.74370 9832 ft 296 kts 355°
2026-04-30 09:56 19.25489 72.74243 9843 ft 318 kts 354°
2026-04-30 09:57 19.27779 72.74097 9924 ft 341 kts 356°
2026-04-30 09:57 19.30155 72.74442 10530 ft 351 kts 18°
2026-04-30 09:57 19.32267 72.75773 11298 ft 357 kts 37°
2026-04-30 09:57 19.34152 72.77510 12072 ft 361 kts 41°
2026-04-30 09:58 19.36013 72.79307 12852 ft 363 kts 41°
2026-04-30 09:58 19.37890 72.81106 13637 ft 366 kts 40°
2026-04-30 09:58 19.39795 72.82913 14408 ft 369 kts 40°
2026-04-30 09:58 19.41722 72.84728 15173 ft 372 kts 40°
2026-04-30 09:59 19.45442 72.88599 16618 ft 382 kts 53°
2026-04-30 09:59 19.47337 72.93918 17983 ft 394 kts 76°
2026-04-30 10:00 19.48473 72.99625 19223 ft 403 kts 76°
2026-04-30 10:00 19.49054 73.02543 19818 ft 407 kts 76°
2026-04-30 10:01 19.50259 73.08449 21008 ft 413 kts 75°
2026-04-30 10:01 19.50888 73.11436 21577 ft 417 kts 74°
2026-04-30 10:01 19.51525 73.14452 22116 ft 421 kts 74°
2026-04-30 10:02 19.52816 73.20559 23175 ft 428 kts 74°
2026-04-30 10:02 19.53468 73.23651 23693 ft 432 kts 74°
2026-04-30 10:02 19.54126 73.26768 24177 ft 435 kts 73°
2026-04-30 10:02 19.54789 73.29914 24670 ft 438 kts 73°
2026-04-30 10:03 19.55455 73.33077 25141 ft 441 kts 73°
2026-04-30 10:03 19.56061 73.36285 25584 ft 447 kts 77°
2026-04-30 10:03 19.56457 73.39569 26018 ft 451 kts 80°
2026-04-30 10:03 19.56790 73.42887 26420 ft 454 kts 80°
2026-04-30 10:04 19.57115 73.46230 26825 ft 458 kts 80°
2026-04-30 10:04 19.57443 73.49600 27243 ft 461 kts 80°
2026-04-30 10:04 19.57774 73.52987 27626 ft 464 kts 80°
2026-04-30 10:04 19.58108 73.56400 28009 ft 466 kts 79°
2026-04-30 10:05 19.58445 73.59834 28356 ft 470 kts 79°
2026-04-30 10:05 19.58782 73.63284 28715 ft 473 kts 79°
2026-04-30 10:05 19.59259 73.66733 29063 ft 471 kts 72°
2026-04-30 10:05 19.60222 73.70029 29430 ft 466 kts 62°
2026-04-30 10:06 19.61610 73.73085 29757 ft 466 kts 57°
2026-04-30 10:06 19.63134 73.76120 29865 ft 466 kts 56°
2026-04-30 10:06 19.64675 73.79147 29871 ft 466 kts 56°
2026-04-30 10:07 19.67755 73.85210 29868 ft 467 kts 56°
2026-04-30 10:07 19.70824 73.91287 29875 ft 467 kts 56°
2026-04-30 10:08 19.73886 73.97358 29883 ft 467 kts 56°
2026-04-30 10:08 19.77662 74.02823 29876 ft 454 kts 38°
2026-04-30 10:08 19.80026 74.05050 30067 ft 454 kts 35°
2026-04-30 10:09 19.82466 74.07180 30425 ft 454 kts 33°
2026-04-30 10:09 19.84947 74.09266 30756 ft 456 kts 33°
2026-04-30 10:09 19.87452 74.11346 31052 ft 458 kts 33°
2026-04-30 10:09 19.89974 74.13440 31355 ft 461 kts 33°
2026-04-30 10:10 19.92502 74.15549 31632 ft 464 kts 33°
2026-04-30 10:10 19.95038 74.17678 31920 ft 466 kts 33°
2026-04-30 10:10 19.97583 74.19826 32238 ft 467 kts 33°
2026-04-30 10:10 20.00122 74.21978 32655 ft 467 kts 33°
2026-04-30 10:11 20.02655 74.24130 33062 ft 466 kts 33°
2026-04-30 10:11 20.05186 74.26280 33442 ft 465 kts 33°
2026-04-30 10:11 20.07711 74.28427 33819 ft 465 kts 33°
2026-04-30 10:11 20.10236 74.30573 34193 ft 464 kts 33°
2026-04-30 10:12 20.12757 74.32715 34586 ft 463 kts 33°
2026-04-30 10:12 20.15273 74.34856 34957 ft 462 kts 33°
2026-04-30 10:12 20.17778 74.36987 35337 ft 461 kts 33°
2026-04-30 10:12 20.20281 74.39116 35694 ft 460 kts 33°
2026-04-30 10:13 20.22782 74.41244 36034 ft 460 kts 33°
2026-04-30 10:13 20.25279 74.43369 36381 ft 459 kts 33°
2026-04-30 10:13 20.27771 74.45492 36708 ft 459 kts 33°
2026-04-30 10:13 20.30262 74.47615 37007 ft 459 kts 33°
2026-04-30 10:14 20.32752 74.49738 37342 ft 458 kts 33°
2026-04-30 10:14 20.35201 74.51827 37695 ft 456 kts 34°
2026-04-30 10:14 20.40139 74.56042 38371 ft 453 kts 34°
2026-04-30 10:15 20.42592 74.58137 38701 ft 451 kts 34°
2026-04-30 10:15 20.45039 74.60228 39007 ft 450 kts 34°
2026-04-30 10:15 20.47478 74.62313 39316 ft 448 kts 34°
2026-04-30 10:15 20.49904 74.64387 39580 ft 448 kts 34°
2026-04-30 10:16 20.52336 74.66467 39804 ft 448 kts 34°
2026-04-30 10:16 20.54762 74.68542 40018 ft 448 kts 34°
2026-04-30 10:16 20.57195 74.70624 40228 ft 448 kts 34°
2026-04-30 10:17 20.62064 74.74794 40628 ft 449 kts 34°
2026-04-30 10:17 20.66948 74.78975 40816 ft 454 kts 34°
2026-04-30 10:17 20.69427 74.81083 40813 ft 455 kts 34°
2026-04-30 10:18 20.74383 74.85286 40803 ft 455 kts 34°
2026-04-30 10:19 20.81815 74.91595 40795 ft 454 kts 34°
2026-04-30 10:19 20.86759 74.95798 40792 ft 454 kts 34°
2026-04-30 10:20 20.91707 75.00009 40785 ft 454 kts 34°
2026-04-30 10:20 20.99121 75.06326 40777 ft 454 kts 34°
2026-04-30 10:21 21.04032 75.10515 40766 ft 454 kts 34°
2026-04-30 10:21 21.09001 75.14757 40768 ft 454 kts 34°
2026-04-30 10:22 21.13941 75.18979 40767 ft 454 kts 34°
2026-04-30 10:22 21.18867 75.23208 40759 ft 454 kts 34°
2026-04-30 10:23 21.23758 75.27430 40745 ft 454 kts 34°
2026-04-30 10:23 21.28673 75.31680 40762 ft 454 kts 34°
2026-04-30 10:24 21.33602 75.35942 40747 ft 455 kts 34°
2026-04-30 10:24 21.38525 75.40203 40762 ft 455 kts 34°
2026-04-30 10:25 21.43446 75.44464 40758 ft 455 kts 34°
2026-04-30 10:25 21.48367 75.48730 40764 ft 454 kts 34°
2026-04-30 10:26 21.53286 75.52998 40768 ft 455 kts 34°
2026-04-30 10:26 21.58204 75.57270 40767 ft 455 kts 34°
2026-04-30 10:27 21.63118 75.61541 40769 ft 454 kts 34°
2026-04-30 10:27 21.68032 75.65816 40769 ft 454 kts 34°
2026-04-30 10:28 21.72943 75.70092 40768 ft 454 kts 34°
2026-04-30 10:28 21.77854 75.74369 40777 ft 454 kts 34°
2026-04-30 10:29 21.82770 75.78653 40776 ft 455 kts 34°
2026-04-30 10:29 21.87686 75.82942 40785 ft 455 kts 34°
2026-04-30 10:30 21.92597 75.87231 40785 ft 455 kts 34°
2026-04-30 10:30 21.97511 75.91525 40790 ft 455 kts 34°
2026-04-30 10:31 22.02423 75.95823 40795 ft 455 kts 34°
2026-04-30 10:31 22.07267 76.00225 40795 ft 458 kts 38°
2026-04-30 10:32 22.11823 76.05038 40801 ft 459 kts 40°
2026-04-30 10:32 22.16319 76.09935 40803 ft 459 kts 40°
2026-04-30 10:33 22.20803 76.14851 40804 ft 459 kts 40°
2026-04-30 10:33 22.25290 76.19764 40803 ft 459 kts 40°
2026-04-30 10:34 22.29775 76.24671 40803 ft 459 kts 40°
2026-04-30 10:34 22.34258 76.29577 40803 ft 459 kts 40°
2026-04-30 10:35 22.38737 76.34483 40803 ft 458 kts 40°
2026-04-30 10:35 22.43214 76.39391 40803 ft 458 kts 40°
2026-04-30 10:36 22.47690 76.44303 40804 ft 458 kts 40°
2026-04-30 10:36 22.51409 76.48389 40796 ft 458 kts 40°
2026-04-30 10:37 22.55873 76.53299 40795 ft 458 kts 40°
2026-04-30 10:37 22.61057 76.59005 40795 ft 458 kts 40°
2026-04-30 10:38 22.64797 76.63125 40787 ft 457 kts 40°
2026-04-30 10:38 22.69256 76.68043 40775 ft 457 kts 40°
2026-04-30 10:39 22.73706 76.72956 40766 ft 457 kts 40°
2026-04-30 10:39 22.78125 76.77838 40766 ft 457 kts 40°
2026-04-30 10:40 22.82574 76.82759 40768 ft 457 kts 40°
2026-04-30 10:40 22.87021 76.87683 40765 ft 457 kts 40°
2026-04-30 10:41 22.91467 76.92610 40759 ft 457 kts 40°
2026-04-30 10:41 22.95910 76.97539 40761 ft 457 kts 40°
2026-04-30 10:42 23.00351 77.02471 40745 ft 457 kts 39°
2026-04-30 10:42 23.04792 77.07408 40748 ft 457 kts 40°
2026-04-30 10:43 23.09227 77.12343 40754 ft 457 kts 40°
2026-04-30 10:43 23.13660 77.17281 40754 ft 456 kts 40°
2026-04-30 10:44 23.18089 77.22220 40747 ft 456 kts 39°
2026-04-30 10:44 23.22515 77.27160 40751 ft 456 kts 39°
2026-04-30 10:45 23.26935 77.32123 40753 ft 458 kts 42°
2026-04-30 10:45 23.30799 77.37713 40743 ft 465 kts 49°
2026-04-30 10:46 23.34407 77.43567 40749 ft 466 kts 50°
2026-04-30 10:46 23.37958 77.49470 40750 ft 466 kts 50°
2026-04-30 10:47 23.41511 77.55373 40751 ft 466 kts 50°
2026-04-30 10:47 23.45050 77.61235 40747 ft 466 kts 50°
2026-04-30 10:48 23.48614 77.67132 40747 ft 466 kts 50°
2026-04-30 10:48 23.52178 77.73034 40747 ft 466 kts 50°
2026-04-30 10:49 23.55740 77.78939 40736 ft 467 kts 50°
2026-04-30 10:49 23.59302 77.84853 40744 ft 467 kts 50°
2026-04-30 10:50 23.62868 77.90782 40739 ft 467 kts 50°
2026-04-30 10:50 23.66429 77.96709 40741 ft 467 kts 50°
2026-04-30 10:51 23.69986 78.02637 40735 ft 467 kts 50°
2026-04-30 10:51 23.73544 78.08572 40737 ft 467 kts 50°
2026-04-30 10:52 23.77100 78.14511 40745 ft 467 kts 50°
2026-04-30 10:52 23.80651 78.20449 40727 ft 467 kts 50°
2026-04-30 10:53 23.84199 78.26390 40734 ft 467 kts 50°
2026-04-30 10:53 23.87726 78.32302 40733 ft 467 kts 50°
2026-04-30 10:54 23.91276 78.38259 40736 ft 467 kts 50°
2026-04-30 10:54 23.94818 78.44212 40730 ft 467 kts 50°
2026-04-30 10:55 23.98360 78.50170 40730 ft 467 kts 50°
2026-04-30 10:55 24.01896 78.56133 40725 ft 467 kts 50°
2026-04-30 10:56 24.05413 78.62110 40731 ft 468 kts 50°
2026-04-30 10:56 24.08935 78.68116 40732 ft 469 kts 50°
2026-04-30 10:57 24.12453 78.74121 40730 ft 469 kts 50°
2026-04-30 10:57 24.15974 78.80134 40732 ft 469 kts 50°
2026-04-30 10:58 24.19494 78.86151 40725 ft 469 kts 50°
2026-04-30 10:58 24.23010 78.92168 40711 ft 470 kts 50°
2026-04-30 10:59 24.26508 78.98163 40710 ft 470 kts 50°
2026-04-30 10:59 24.30028 79.04203 40711 ft 470 kts 50°
2026-04-30 11:00 24.33545 79.10244 40711 ft 470 kts 50°
2026-04-30 11:00 24.37061 79.16291 40711 ft 470 kts 50°
2026-04-30 11:01 24.40578 79.22347 40701 ft 471 kts 50°
2026-04-30 11:01 24.44093 79.28408 40702 ft 471 kts 50°
2026-04-30 11:02 24.47610 79.34480 40700 ft 471 kts 50°
2026-04-30 11:02 24.51124 79.40555 40703 ft 471 kts 50°
2026-04-30 11:03 24.54635 79.46632 40700 ft 471 kts 50°
2026-04-30 11:04 24.59897 79.55753 40693 ft 471 kts 50°
2026-04-30 11:04 24.63405 79.61844 40693 ft 471 kts 50°
2026-04-30 11:05 24.66907 79.67930 40692 ft 471 kts 50°
2026-04-30 11:05 24.70412 79.74030 40692 ft 472 kts 50°
2026-04-30 11:06 24.73918 79.80140 40692 ft 473 kts 50°
2026-04-30 11:06 24.77402 79.86220 40692 ft 473 kts 50°
2026-04-30 11:07 24.80429 79.92704 40692 ft 486 kts 64°
2026-04-30 11:07 24.82317 79.99889 40692 ft 491 kts 69°
2026-04-30 11:08 24.83950 80.07201 40692 ft 493 kts 70°
2026-04-30 11:08 24.85552 80.14562 40692 ft 495 kts 70°
2026-04-30 11:09 24.87174 80.21929 40674 ft 495 kts 70°
2026-04-30 11:09 24.88811 80.29296 40664 ft 496 kts 70°
2026-04-30 11:10 24.90453 80.36678 40665 ft 496 kts 70°
2026-04-30 11:10 24.92090 80.44058 40661 ft 496 kts 70°
2026-04-30 11:11 24.93724 80.51445 40665 ft 497 kts 70°
2026-04-30 11:11 24.95358 80.58849 40666 ft 498 kts 70°
2026-04-30 11:12 24.96987 80.66258 40664 ft 497 kts 70°
2026-04-30 11:12 24.98614 80.73673 40673 ft 498 kts 70°
2026-04-30 11:13 25.00240 80.81100 40674 ft 498 kts 70°
2026-04-30 11:13 25.01864 80.88537 40673 ft 499 kts 70°
2026-04-30 11:14 25.03502 80.95973 40674 ft 499 kts 70°
2026-04-30 11:14 25.05151 81.03363 40675 ft 500 kts 70°
2026-04-30 11:15 25.06811 81.10811 40683 ft 500 kts 70°
2026-04-30 11:15 25.08465 81.18267 40683 ft 501 kts 70°
2026-04-30 11:16 25.10116 81.25733 40683 ft 501 kts 70°
2026-04-30 11:16 25.11763 81.33205 40683 ft 502 kts 70°
2026-04-30 11:17 25.13409 81.40688 40683 ft 502 kts 70°
2026-04-30 11:17 25.15078 81.48180 40683 ft 502 kts 70°
2026-04-30 11:18 25.16792 81.55649 40683 ft 502 kts 70°
2026-04-30 11:18 25.19370 81.66861 40683 ft 503 kts 70°
2026-04-30 11:19 25.21077 81.74340 40690 ft 503 kts 70°
2026-04-30 11:19 25.22781 81.81836 40692 ft 503 kts 70°
2026-04-30 11:20 25.24482 81.89336 40702 ft 503 kts 70°
2026-04-30 11:20 25.26168 81.96792 40701 ft 504 kts 70°
2026-04-30 11:21 25.27863 82.04301 40692 ft 504 kts 71°
2026-04-30 11:21 25.29557 82.11824 40692 ft 505 kts 71°
2026-04-30 11:22 25.31249 82.19360 40697 ft 505 kts 71°
2026-04-30 11:22 25.32930 82.26901 40694 ft 506 kts 71°
2026-04-30 11:23 25.34555 82.34462 40692 ft 506 kts 72°
2026-04-30 11:24 25.36961 82.45821 40692 ft 506 kts 72°
2026-04-30 11:24 25.38564 82.53390 40692 ft 506 kts 72°
2026-04-30 11:25 25.40969 82.64758 40692 ft 506 kts 72°
2026-04-30 11:26 25.44166 82.79918 40692 ft 505 kts 71°
2026-04-30 11:26 25.46760 82.86996 40692 ft 490 kts 52°
2026-04-30 11:27 25.50814 82.92892 40692 ft 483 kts 44°
2026-04-30 11:27 25.55220 82.98497 40693 ft 483 kts 42°
2026-04-30 11:28 25.61904 83.06851 40692 ft 483 kts 43°
2026-04-30 11:29 25.66340 83.12462 40695 ft 484 kts 43°
2026-04-30 11:29 25.72980 83.20918 40701 ft 485 kts 43°
2026-04-30 11:30 25.78870 83.28431 40707 ft 485 kts 43°
2026-04-30 11:31 25.83349 83.34045 40711 ft 486 kts 42°
2026-04-30 11:31 25.87853 83.39643 40714 ft 486 kts 43°
2026-04-30 11:32 25.92357 83.45251 40723 ft 487 kts 43°
2026-04-30 11:32 25.96865 83.50881 40729 ft 488 kts 43°
2026-04-30 11:33 26.03632 83.59345 40727 ft 489 kts 43°
2026-04-30 11:33 26.08174 83.64969 40743 ft 489 kts 43°
2026-04-30 11:34 26.12730 83.70596 40741 ft 489 kts 43°
2026-04-30 11:34 26.17284 83.76231 40734 ft 490 kts 43°
2026-04-30 11:35 26.21835 83.81874 40738 ft 490 kts 43°
2026-04-30 11:35 26.26391 83.87530 40682 ft 492 kts 43°
2026-04-30 11:36 26.28694 83.90376 40205 ft 496 kts 43°
2026-04-30 11:36 26.31021 83.93242 39465 ft 500 kts 43°
2026-04-30 11:36 26.33364 83.96127 38696 ft 504 kts 43°
2026-04-30 11:36 26.35718 83.99030 37947 ft 505 kts 43°
2026-04-30 11:37 26.38062 84.01926 36950 ft 502 kts 43°
2026-04-30 11:37 26.40400 84.04819 35794 ft 502 kts 44°
2026-04-30 11:37 26.42708 84.07674 34563 ft 503 kts 45°
2026-04-30 11:37 26.45058 84.10582 33223 ft 505 kts 45°
2026-04-30 11:38 26.47405 84.13489 31765 ft 508 kts 46°
2026-04-30 11:38 26.49779 84.16431 30246 ft 511 kts 45°
2026-04-30 11:38 26.52155 84.19379 29011 ft 508 kts 46°
2026-04-30 11:38 26.54489 84.22281 27978 ft 498 kts 46°
2026-04-30 11:39 26.56791 84.25142 26818 ft 492 kts 46°
2026-04-30 11:39 26.59057 84.27962 25750 ft 483 kts 46°
2026-04-30 11:39 26.61284 84.30732 24652 ft 475 kts 46°
2026-04-30 11:39 26.63477 84.33463 23557 ft 468 kts 46°
2026-04-30 11:40 26.65634 84.36148 22603 ft 459 kts 46°
2026-04-30 11:40 26.67734 84.38751 21989 ft 443 kts 46°
2026-04-30 11:40 26.69778 84.41277 21499 ft 435 kts 46°
2026-04-30 11:40 26.71796 84.43767 21014 ft 429 kts 46°
2026-04-30 11:41 26.73790 84.46226 20529 ft 424 kts 46°
2026-04-30 11:41 26.75756 84.48654 20061 ft 418 kts 46°
2026-04-30 11:41 26.77696 84.51051 19595 ft 413 kts 46°
2026-04-30 11:41 26.79609 84.53418 19134 ft 408 kts 46°
2026-04-30 11:42 26.81505 84.55766 18678 ft 404 kts 45°
2026-04-30 11:42 26.83383 84.58093 18225 ft 401 kts 45°
2026-04-30 11:42 26.85239 84.60394 17785 ft 397 kts 46°
2026-04-30 11:42 26.87078 84.62674 17324 ft 393 kts 45°
2026-04-30 11:43 26.88903 84.64939 16875 ft 389 kts 46°
2026-04-30 11:43 26.90709 84.67181 16431 ft 385 kts 45°
2026-04-30 11:43 26.92490 84.69395 15997 ft 382 kts 46°
2026-04-30 11:43 26.94261 84.71596 15545 ft 378 kts 46°
2026-04-30 11:44 26.96016 84.73779 15102 ft 375 kts 46°
2026-04-30 11:44 26.97752 84.75940 14672 ft 371 kts 46°
2026-04-30 11:44 26.99468 84.78075 14271 ft 367 kts 46°
2026-04-30 11:44 27.01182 84.80169 13814 ft 363 kts 45°
2026-04-30 11:45 27.02873 84.82189 13420 ft 359 kts 44°
2026-04-30 11:45 27.04584 84.84211 12999 ft 356 kts 44°
2026-04-30 11:45 27.06278 84.86206 12598 ft 352 kts 44°
2026-04-30 11:45 27.07963 84.88193 12204 ft 348 kts 44°
2026-04-30 11:46 27.09624 84.90155 11798 ft 345 kts 44°
2026-04-30 11:46 27.11268 84.92101 11393 ft 342 kts 45°
2026-04-30 11:46 27.12896 84.94031 10999 ft 338 kts 45°
2026-04-30 11:46 27.14477 84.95910 10860 ft 322 kts 45°
2026-04-30 11:47 27.15948 84.97700 10762 ft 304 kts 49°
2026-04-30 11:47 27.17261 84.99505 10636 ft 294 kts 50°
2026-04-30 11:47 27.18520 85.01280 10489 ft 289 kts 51°
2026-04-30 11:47 27.19794 85.03092 10427 ft 301 kts 51°
2026-04-30 11:48 27.21096 85.04955 10427 ft 305 kts 51°
2026-04-30 11:48 27.22405 85.06834 10433 ft 301 kts 51°
2026-04-30 11:48 27.23661 85.08642 10423 ft 285 kts 51°
2026-04-30 11:48 27.24845 85.10348 10426 ft 270 kts 51°
2026-04-30 11:49 27.25969 85.11969 10437 ft 255 kts 51°
2026-04-30 11:49 27.27025 85.13492 10451 ft 247 kts 51°
2026-04-30 11:49 27.28090 85.15028 10457 ft 245 kts 51°
2026-04-30 11:49 27.29138 85.16539 10465 ft 245 kts 51°
2026-04-30 11:50 27.30290 85.17898 10460 ft 243 kts 33°
2026-04-30 11:50 27.31770 85.18793 10469 ft 242 kts 22°
2026-04-30 11:50 27.33323 85.19509 10470 ft 242 kts 20°
2026-04-30 11:50 27.34894 85.20204 10333 ft 245 kts 20°
2026-04-30 11:51 27.36486 85.20911 10072 ft 245 kts 20°
2026-04-30 11:51 27.38060 85.21618 9863 ft 242 kts 20°
2026-04-30 11:51 27.39634 85.22328 9645 ft 239 kts 21°
2026-04-30 11:51 27.41149 85.23013 9454 ft 236 kts 21°
2026-04-30 11:52 27.42636 85.23688 9404 ft 224 kts 21°
2026-04-30 11:52 27.44085 85.24278 9207 ft 220 kts 12°
2026-04-30 11:52 27.45575 85.24506 9019 ft 212 kts
2026-04-30 11:52 27.47019 85.24610 8766 ft 205 kts
2026-04-30 11:53 27.48415 85.24455 8478 ft 199 kts 347°
2026-04-30 11:53 27.49759 85.24085 8139 ft 197 kts 344°
2026-04-30 11:53 27.51076 85.23765 7919 ft 191 kts 351°
2026-04-30 11:53 27.52382 85.23687 7737 ft 186 kts
2026-04-30 11:54 27.53641 85.23887 7541 ft 182 kts 13°
2026-04-30 11:54 27.54826 85.24353 7333 ft 180 kts 24°
2026-04-30 11:54 27.55904 85.25060 7106 ft 178 kts 35°
2026-04-30 11:54 27.56876 85.25914 6888 ft 176 kts 39°
2026-04-30 11:55 27.57803 85.26798 6662 ft 173 kts 41°
2026-04-30 11:55 27.58631 85.27734 6429 ft 164 kts 49°
2026-04-30 11:55 27.59290 85.28712 6259 ft 151 kts 56°
2026-04-30 11:55 27.59879 85.29672 6097 ft 148 kts 56°
2026-04-30 11:56 27.60494 85.30600 5963 ft 148 kts 50°
2026-04-30 11:56 27.61196 85.31443 5792 ft 147 kts 43°
2026-04-30 11:56 27.61979 85.32169 5621 ft 144 kts 35°
2026-04-30 11:56 27.62816 85.32764 5423 ft 141 kts 28°
2026-04-30 11:57 27.63701 85.33235 5253 ft 140 kts 22°
2026-04-30 11:57 27.64606 85.33642 5087 ft 140 kts 21°
2026-04-30 11:57 27.65508 85.34041 4920 ft 139 kts 21°
2026-04-30 11:57 27.66407 85.34443 4770 ft 139 kts 21°
2026-04-30 11:58 27.67310 85.34849 4615 ft 140 kts 21°
2026-04-30 11:58 27.68213 85.35260 4483 ft 140 kts 21°
2026-04-30 11:58 27.69100 85.35662 4396 ft 125 kts 21°
2026-04-30 11:58 27.69651 85.35910 4399 ft 49 kts 22°
2026-04-30 11:59 27.69813 85.35984 4400 ft 16 kts 22°
2026-04-30 11:59 27.69891 85.35979 4399 ft 1 kts 329°
2026-04-30 11:59 27.69893 85.35975 4400 ft 0 kts 316°
2026-04-30 11:59 27.69896 85.35971 4400 ft 1 kts 313°
2026-04-30 12:00 27.69899 85.35958 4400 ft 3 kts 287°
2026-04-30 12:00 27.69902 85.35944 4401 ft 2 kts 280°
2026-04-30 12:00 27.69906 85.35916 4401 ft 6 kts 280°
2026-04-30 12:00 27.69917 85.35868 4401 ft 7 kts 287°
2026-04-30 12:01 27.69935 85.35818 4401 ft 5 kts 292°
2026-04-30 12:01 27.69935 85.35817 4401 ft 0 kts 292°